Location: Boiro
(42.6475°N, 8.8834°W)
Time: 01:30:17
(UTC+01:00)

Transit 2A Rocket - Pass Details

Date: 04 December 2021
Orbit: 584 x 917 km, 66.7° (Epoch: 23 January)

Event Time Altitude Azimuth Distance (km) Brightness Sun altitude
Rises 10:44:05 0° 255° (WSW) 3,371 8.1 15.1°
Reaches altitude 10° 10:47:03 10° 270° (W) 2,492 7.3 15.5°
Maximum altitude 10:51:29 22° 320° (NW) 1,846 6.5 16.0°
Drops below altitude 10° 10:56:06 10° 10° (N) 2,603 7.4 16.5°
Sets 10:59:18 0° 25° (NNE) 3,562 8.2 16.8°
